This is the latest recevied weather packets stored in our database for station/object F4IEI-10. If no packets are shown the sender has not sent any weather packets the latest 10 day(s).
| Time | Temp. | Humidity | Pressure | Rain* | Wind** | Luminosity | Snow |
|---|---|---|---|---|---|---|---|
| 1778084026 | 11.11° C | 93% | 1011.5 hPa | - | - | - | - |
| 1778083127 | 11.11° C | 92% | 1011.5 hPa | - | - | - | - |
| 1778082226 | 11.11° C | 95% | 1011.5 hPa | - | - | - | - |
| 1778081326 | 11.11° C | 93% | 1011.5 hPa | - | - | - | - |
| 1778080427 | 11.11° C | 94% | 1011.4 hPa | - | - | - | - |
| 1778079526 | 11.11° C | 91% | 1011.4 hPa | - | - | - | - |
| 1778078626 | 11.67° C | 89% | 1011.4 hPa | - | - | - | - |
| 1778077733 | 12.22° C | 88% | 1011.2 hPa | - | - | - | - |
| 1778076826 | 12.22° C | 83% | 1011.2 hPa | - | - | - | - |
| 1778075927 | 12.78° C | 80% | 1011.2 hPa | - | - | - | - |
| 1778075022 | 12.22° C | 82% | 1011.3 hPa | - | - | - | - |
| 1778074122 | 12.78° C | 84% | 1011.4 hPa | - | - | - | - |
| 1778073222 | 12.78° C | 85% | 1011.3 hPa | - | - | - | - |
| 1778072322 | 12.78° C | 87% | 1011.2 hPa | - | - | - | - |
| 1778071422 | 12.22° C | 89% | 1011 hPa | - | - | - | - |
| 1778070522 | 12.22° C | 87% | 1011 hPa | - | - | - | - |
| 1778069622 | 12.22° C | 86% | 1010.9 hPa | - | - | - | - |
| 1778068729 | 12.22° C | 88% | 1010.8 hPa | - | - | - | - |
| 1778067822 | 11.11° C | 92% | 1010.9 hPa | - | - | - | - |
| 1778066922 | 10.56° C | 92% | 1010.8 hPa | - | - | - | - |
| 1778066022 | 11.11° C | 89% | 1010.8 hPa | - | - | - | - |
| 1778065122 | 11.11° C | 92% | 1010.8 hPa | - | - | - | - |
| 1778064222 | 11.11° C | 90% | 1010.9 hPa | - | - | - | - |
| 1778063326 | 11.11° C | 89% | 1011 hPa | - | - | - | - |
| 1778062425 | 11.11° C | 88% | 1011 hPa | - | - | - | - |
* Rain since midnight (hover to see other rain measurements)
** Current wind speed in m/s (hover to see current wind gust speed)